Showing default

IRIDIUM 136, 42962

Orbit data source: Space-Track

IRIDIUM 136, 42962 is a payload satellite owned by Iridium (US) in LEO that was launched on Mon, 09 Oct 2017 UTC via an FALCON 9 launch vehicle from the Air Force Western Test Range (AFWTR). Payload-class satellites include a variety of spacecraft equipped with specific instruments for various scientific and technological missions. These include communications satellites like Starlink; space stations such as the ISS; scientific satellites like the Hubble; Earth observation satellites from companies like Planet Labs, Umbra, and HawkEye 360; GPS; miniature CubeSats for education and research; and military/defense satellites.

Loading next visibility...
Identifier
42962, 2017-061H
Orbit
LEO
Country
Flag of USUS
Related business
Manufacturer
OATK SSG Gilbert
Mission
Operational Commercial Communications
Bus & Motor
ELITEBUS, Unknown motor
Mass
860 kg wet, 700 kg dry
Launch date (UTC)
2017-10-09 (8 years ago)
Launch vehicle
FALCON 9
Launch site
Air Force Western Test Range (AFWTR)
Object type
Payload
Rocket body
Debris
Shape & HBR
Trap Box + 2 Pan, 4.7 m
Radar Cross Section
14.423 m², Large (>1 m²)

Expand to show TLE details & history
Last TLE update: 13 hours ago

TLE from 13 hours ago
0 IRIDIUM 136
1 42962U 17061H   25258.71442975 -.00000065  00000-0 -30356-4 0  9993
2 42962  86.4002 140.0174 0002117  90.2122 269.9316 14.34217522415499
Epoch: 2025-09-15T17:08Z
TLE epoch observation values (Epoch: 2025-09-15T17:08:46.73Z)
Latitude
-0.00006°
Longitude
-112.09243°
Altitude
780.721 km
Speed
7.463 km/s
True Right ascension
09h 20m 04s
True Declination
0° 00' 00"
Sunlit
Object was in daylight at epoch
Visualization orbit readout
Latitude
Unknown
Longitude
Unknown
Altitude
Unknown
Speed
Unknown
Apparent Right ascension
Unknown
Apparent Declination
Unknown
Sunlit
N/A
Visualization observer readout
Local Sidereal Time
23:10:39
Azimuth
Unknown
Elevation
Unknown
Doppler factor
Unknown
Orbital elements
Apogee altitude
776.147 km
Perigee altitude
773.118 km
Semi-major axis
7,152.769 km
Eccentricity
0.00021
Inclination
86.4002°
RAAN
140.0174°
Arg. of periapsis
90.2122°
True anomaly
269.90734°
Mean anomaly
269.9316°
Eccentric anomaly
269.91947°
Mean motion
3.58783 °/min
Orbital period
100.34 mins
BSTAR
-0.000030356
Loading maneuver chart data...
Computing Atmospheric mass density...
Loading historical data...
Loading historical data...
Loading historical data...
Loading historical data...
Loading historical data...
Loading historical data...
Loading historical data...

Documentation

Showing up to 5 results
|